Orlando International, FL

5:26 PM EDT on June 21, 2018 (GMT -0400)
Orlando International

Weather History for KMCO - June, 2011

Change the Weather History Date:

Friday, June 24, 2011

  Actual Average Record
Temperature  
Mean Temperature 85 °F 82 °F  
Max Temperature 96 °F 91 °F 100 °F (1944)
Min Temperature 74 °F 73 °F 66 °F (1917)
Degree Days  
Heating Degree Days 0 0  
Month to date heating degree days 0 0  
Since 1 June heating degree days 0 0  
Since 1 July heating degree days 703 571  
Cooling Degree Days 20 17  
Month to date cooling degree days 433 388  
Year to date cooling degree days 1461 1189  
Since 1 June cooling degree days 433 388  
Growing Degree Days 34 (Base 50)    
Moisture  
Dew Point 73 °F    
Average Humidity 70    
Maximum Humidity 94    
Minimum Humidity 46    
Precipitation  
Precipitation 1.33 in 0.25 in 3.64 in (1963)
Month to date precipitation 4.60 6.10  
Year to date precipitation 18.76 20.73  
Sea Level Pressure  
Sea Level Pressure 29.95 in    
Wind  
Wind Speed 5 mph (South)    
Max Wind Speed 21 mph    
Max Gust Speed 28 mph    
Visibility 8 miles    
Events Rain , Thunderstorm    
T = Trace of Precipitation, MM = Missing Value Source: NWS Daily Summary

Daily Weather History Graph

Daily Weather History Graph

Search for Another Location

Airport or City:

Astronomy

Jun. 24, 2011 Rise Set
Actual Time 6:29 AM EDT 8:26 PM EDT
Civil Twilight 6:02 AM EDT 8:53 PM EDT
Nautical Twilight 5:29 AM EDT 9:25 PM EDT
Astronomical Twilight 4:55 AM EDT 10:00 PM EDT
Moon 1:28 AM EDT (6/24) 2:33 PM EDT (6/24)
Length of Visible Light 14h 50m
Length of Day
13h 57m
Last Quarter, 39% of the Moon is Illuminated
Jun 24
Last Quarter
Jul 1
New
Jul 8
First Quarter
Jul 15
Full
Jul 23
Last Quarter

Hourly Weather History & Observations

Time (EDT) Temp. Heat Index Dew Point Humidity Pressure Visibility Wind Dir Wind Speed Gust Speed Precip Events Conditions
12:53 AM 79.0 °F - 71.1 °F 77% 30.00 in 10.0 mi Calm Calm - N/A   Mostly Cloudy
1:53 AM 78.1 °F - 71.1 °F 79% 29.97 in 10.0 mi SE 5.8 mph - N/A   Mostly Cloudy
2:53 AM 79.0 °F - 71.1 °F 77% 29.96 in 10.0 mi Calm Calm - N/A   Mostly Cloudy
3:53 AM 77.0 °F - 71.1 °F 82% 29.95 in 10.0 mi Calm Calm - N/A   Mostly Cloudy
4:53 AM 75.9 °F - 72.0 °F 87% 29.94 in 10.0 mi SSE 4.6 mph - N/A   Mostly Cloudy
5:53 AM 75.9 °F - 73.0 °F 91% 29.95 in 10.0 mi SSE 4.6 mph - N/A   Mostly Cloudy
6:53 AM 77.0 °F - 73.0 °F 88% 29.96 in 10.0 mi Calm Calm - N/A   Mostly Cloudy
7:53 AM 79.0 °F - 73.0 °F 82% 29.96 in 10.0 mi South 3.5 mph - N/A   Scattered Clouds
8:53 AM 82.0 °F 87.9 °F 73.9 °F 76% 29.98 in 10.0 mi SSW 8.1 mph - N/A   Scattered Clouds
9:53 AM 84.0 °F 91.2 °F 73.9 °F 72% 29.98 in 10.0 mi SSW 8.1 mph - N/A   Mostly Cloudy
10:53 AM 87.1 °F 95.4 °F 73.9 °F 65% 29.97 in 10.0 mi Variable 5.8 mph - N/A   Scattered Clouds
11:53 AM 89.1 °F 97.0 °F 73.0 °F 59% 29.96 in 10.0 mi SSW 6.9 mph - N/A   Scattered Clouds
12:53 PM 91.9 °F 100.7 °F 73.0 °F 54% 29.94 in 10.0 mi SW 8.1 mph - N/A   Scattered Clouds
1:53 PM 93.0 °F 100.7 °F 72.0 °F 50% 29.92 in 10.0 mi SW 6.9 mph - N/A   Mostly Cloudy
2:53 PM 93.9 °F 102.1 °F 72.0 °F 49% 29.90 in 10.0 mi West 6.9 mph - N/A   Mostly Cloudy
3:53 PM 95.0 °F 103.2 °F 72.0 °F 47% 29.87 in 10.0 mi WNW 5.8 mph - N/A   Mostly Cloudy
4:46 PM 91.9 °F 99.5 °F 72.0 °F 52% 29.87 in 10.0 mi West 5.8 mph - N/A Thunderstorm Thunderstorm
4:53 PM 91.9 °F 98.4 °F 71.1 °F 50% 29.87 in 10.0 mi West 6.9 mph - N/A Thunderstorm Thunderstorm
5:53 PM 82.0 °F 86.7 °F 72.0 °F 71% 29.92 in 10.0 mi ESE 5.8 mph - 0.02 in Rain , Thunderstorm Light Thunderstorms and Rain
6:15 PM 78.1 °F - 72.0 °F 81% 29.93 in 8.0 mi ESE 16.1 mph 23.0 mph 0.01 in Rain , Thunderstorm Thunderstorms and Rain
6:53 PM 73.9 °F - 71.1 °F 91% 29.99 in 10.0 mi Variable 5.8 mph - 0.17 in Rain , Thunderstorm Light Thunderstorms and Rain
7:04 PM 73.9 °F - 71.1 °F 91% 29.98 in 2.0 mi ESE 9.2 mph - 0.38 in Rain , Thunderstorm Heavy Thunderstorms and Rain
7:13 PM 73.9 °F - 72.0 °F 93% 29.98 in 2.5 mi ESE 8.1 mph - 0.59 in Rain , Thunderstorm Heavy Thunderstorms and Rain
7:25 PM 75.0 °F - 73.0 °F 94% 29.98 in 4.0 mi SE 8.1 mph - 0.63 in Rain , Thunderstorm Light Thunderstorms and Rain
7:30 PM 75.0 °F - 73.0 °F 94% 29.98 in 3.0 mi SSE 9.2 mph - 0.66 in Rain , Thunderstorm Heavy Thunderstorms and Rain
7:37 PM 75.0 °F - 73.0 °F 94% 29.96 in 3.0 mi SE 9.2 mph - 0.84 in Rain , Thunderstorm Heavy Thunderstorms and Rain
7:50 PM 75.0 °F - 73.9 °F 96% 29.96 in 4.0 mi NNW 10.4 mph - 1.06 in Rain , Thunderstorm Heavy Thunderstorms and Rain
7:53 PM 75.0 °F - 73.9 °F 96% 29.95 in 4.0 mi NW 5.8 mph - 1.07 in Rain , Thunderstorm Thunderstorms and Rain
8:26 PM 75.9 °F - 73.9 °F 94% 29.96 in 10.0 mi East 8.1 mph - 0.02 in Rain , Thunderstorm Light Thunderstorms and Rain
8:53 PM 75.0 °F - 73.9 °F 96% 29.96 in 10.0 mi East 8.1 mph - 0.05 in Rain Light Rain
9:13 PM 75.0 °F - 73.9 °F 96% 29.97 in 10.0 mi SSE 4.6 mph - 0.01 in Rain Light Rain
9:53 PM 75.0 °F - 73.9 °F 96% 29.97 in 10.0 mi South 4.6 mph - 0.01 in   Overcast
10:53 PM 75.0 °F - 73.0 °F 94% 29.98 in 10.0 mi South 8.1 mph - 0.01 in Rain Light Rain
11:53 PM 75.0 °F - 72.0 °F 90% 29.98 in 10.0 mi South 6.9 mph - 0.00 in   Overcast